N715JB SVMI-SVMG

Flight info

Callsign N715JB
Flight time 0h 34m
Altitude 23000
Route OSMAR DCT DALSI W19 CHALO DCT VAREX
Aircraft A20N/M-SDE2E3FGHIRWXY/LB1

Departure

Time 2026-05-08 03:16
Airport Maiquetía Simón Bolívar International Airport (SVMI)

Arrival

Time 2026-05-08 03:50
Airport Del Caribe Santiago Mariño International Airport (SVMG)
Time Latitude Longitude Altitude Speed Heading
2026-05-08 03:04 10.59978 -67.00047 171 ft 0 kts 180°
2026-05-08 03:12 10.59964 -67.00047 230 ft 8 kts 180°
2026-05-08 03:12 10.59915 -67.00034 230 ft 6 kts 122°
2026-05-08 03:12 10.59912 -66.99973 230 ft 10 kts 89°
2026-05-08 03:12 10.59943 -66.99916 229 ft 10 kts 13°
2026-05-08 03:13 10.60025 -66.99912 229 ft 13 kts 358°
2026-05-08 03:13 10.60125 -66.99910 231 ft 13 kts 27°
2026-05-08 03:13 10.60136 -66.99867 226 ft 8 kts 87°
2026-05-08 03:13 10.60139 -66.99747 218 ft 19 kts 90°
2026-05-08 03:14 10.60131 -66.99682 218 ft 2 kts 116°
2026-05-08 03:14 10.60059 -66.99663 223 ft 16 kts 177°
2026-05-08 03:14 10.59995 -66.99661 229 ft 8 kts 179°
2026-05-08 03:14 10.59942 -66.99661 231 ft 8 kts 180°
2026-05-08 03:15 10.59907 -66.99645 230 ft 7 kts 108°
2026-05-08 03:15 10.59922 -66.99567 225 ft 28 kts 82°
2026-05-08 03:15 10.60031 -66.99120 199 ft 99 kts 76°
2026-05-08 03:15 10.60240 -66.98254 198 ft 147 kts 77°
2026-05-08 03:16 10.60517 -66.97248 629 ft 154 kts 74°
2026-05-08 03:16 10.60874 -66.96195 1119 ft 164 kts 73°
2026-05-08 03:16 10.61392 -66.95110 1587 ft 176 kts 60°
2026-05-08 03:16 10.62044 -66.94033 2116 ft 181 kts 63°
2026-05-08 03:17 10.62628 -66.92859 2499 ft 194 kts 68°
2026-05-08 03:17 10.63143 -66.91508 2798 ft 217 kts 72°
2026-05-08 03:17 10.63625 -66.89957 3176 ft 241 kts 74°
2026-05-08 03:17 10.64106 -66.88250 3579 ft 262 kts 75°
2026-05-08 03:18 10.64599 -66.86458 3824 ft 263 kts 75°
2026-05-08 03:18 10.65096 -66.84660 4537 ft 263 kts 75°
2026-05-08 03:18 10.65595 -66.82869 5504 ft 264 kts 75°
2026-05-08 03:18 10.66103 -66.81057 6384 ft 269 kts 75°
2026-05-08 03:19 10.66615 -66.79230 7202 ft 273 kts 75°
2026-05-08 03:19 10.67138 -66.77372 8085 ft 274 kts 75°
2026-05-08 03:19 10.67666 -66.75496 8921 ft 278 kts 75°
2026-05-08 03:19 10.68202 -66.73584 9781 ft 283 kts 75°
2026-05-08 03:20 10.68748 -66.71641 10433 ft 293 kts 75°
2026-05-08 03:20 10.69329 -66.69567 10708 ft 315 kts 74°
2026-05-08 03:20 10.69952 -66.67353 11023 ft 334 kts 74°
2026-05-08 03:20 10.70594 -66.65075 11737 ft 337 kts 74°
2026-05-08 03:21 10.71241 -66.62776 12459 ft 341 kts 73°
2026-05-08 03:21 10.71898 -66.60441 13160 ft 344 kts 73°
2026-05-08 03:21 10.72556 -66.58100 13875 ft 346 kts 73°
2026-05-08 03:21 10.73223 -66.55726 14455 ft 351 kts 73°
2026-05-08 03:22 10.73899 -66.53330 15016 ft 355 kts 73°
2026-05-08 03:22 10.74586 -66.50902 15572 ft 360 kts 73°
2026-05-08 03:22 10.75275 -66.48468 16142 ft 364 kts 73°
2026-05-08 03:22 10.75976 -66.45985 16699 ft 368 kts 73°
2026-05-08 03:23 10.76685 -66.43474 17255 ft 372 kts 73°
2026-05-08 03:24 10.79645 -66.32987 19221 ft 390 kts 73°
2026-05-08 03:24 10.80386 -66.30360 19632 ft 395 kts 72°
2026-05-08 03:24 10.81153 -66.27642 20032 ft 400 kts 73°
2026-05-08 03:24 10.81923 -66.24911 20380 ft 406 kts 73°
2026-05-08 03:25 10.82706 -66.22137 20924 ft 411 kts 73°
2026-05-08 03:25 10.83502 -66.19316 21445 ft 416 kts 73°
2026-05-08 03:25 10.84301 -66.16477 21849 ft 420 kts 73°
2026-05-08 03:25 10.85108 -66.13608 22272 ft 424 kts 73°
2026-05-08 03:26 10.85927 -66.10699 22699 ft 428 kts 73°
2026-05-08 03:26 10.86749 -66.07777 22854 ft 431 kts 73°
2026-05-08 03:26 10.87572 -66.04851 22943 ft 431 kts 73°
2026-05-08 03:26 10.88396 -66.01920 23003 ft 432 kts 73°
2026-05-08 03:27 10.89202 -65.98963 23009 ft 432 kts 76°
2026-05-08 03:27 10.89706 -65.95953 23006 ft 433 kts 84°
2026-05-08 03:27 10.89830 -65.92899 23006 ft 433 kts 90°
2026-05-08 03:27 10.89807 -65.90859 23001 ft 433 kts 90°
2026-05-08 03:28 10.89788 -65.87797 23002 ft 433 kts 90°
2026-05-08 03:28 10.89775 -65.84734 23003 ft 433 kts 90°
2026-05-08 03:28 10.89764 -65.81657 23004 ft 434 kts 90°
2026-05-08 03:28 10.89752 -65.78592 23002 ft 434 kts 90°
2026-05-08 03:29 10.89738 -65.75525 23006 ft 434 kts 90°
2026-05-08 03:29 10.89724 -65.72457 23005 ft 434 kts 90°
2026-05-08 03:29 10.89709 -65.69374 22999 ft 434 kts 90°
2026-05-08 03:29 10.89694 -65.66317 23001 ft 435 kts 90°
2026-05-08 03:30 10.89665 -65.60688 23003 ft 435 kts 90°
2026-05-08 03:30 10.89633 -65.54547 22998 ft 435 kts 90°
2026-05-08 03:31 10.89599 -65.48385 22997 ft 435 kts 90°
2026-05-08 03:31 10.89564 -65.42268 22994 ft 435 kts 90°
2026-05-08 03:32 10.89547 -65.39177 22995 ft 436 kts 90°
2026-05-08 03:32 10.89528 -65.36082 22909 ft 437 kts 90°
2026-05-08 03:32 10.89510 -65.32993 22660 ft 435 kts 90°
2026-05-08 03:32 10.89494 -65.29938 22407 ft 431 kts 90°
2026-05-08 03:33 10.89528 -65.26888 22153 ft 428 kts 89°
2026-05-08 03:33 10.89589 -65.23860 21816 ft 427 kts 88°
2026-05-08 03:33 10.89651 -65.20838 21262 ft 427 kts 88°
2026-05-08 03:33 10.89708 -65.17827 20684 ft 425 kts 88°
2026-05-08 03:34 10.89761 -65.14824 20090 ft 422 kts 88°
2026-05-08 03:34 10.89809 -65.11866 19562 ft 418 kts 88°
2026-05-08 03:34 10.89855 -65.08925 19007 ft 414 kts 88°
2026-05-08 03:34 10.89900 -65.06034 18466 ft 410 kts 88°
2026-05-08 03:35 10.89946 -65.03104 17867 ft 406 kts 88°
2026-05-08 03:35 10.89989 -65.00254 17318 ft 400 kts 88°
2026-05-08 03:35 10.90031 -64.97470 16778 ft 395 kts 88°
2026-05-08 03:35 10.90073 -64.94699 16238 ft 390 kts 88°
2026-05-08 03:36 10.90113 -64.91965 15697 ft 384 kts 87°
2026-05-08 03:36 10.90155 -64.89231 15155 ft 379 kts 87°
2026-05-08 03:36 10.90196 -64.86589 14626 ft 375 kts 87°
2026-05-08 03:36 10.90237 -64.83953 14103 ft 371 kts 88°
2026-05-08 03:37 10.90276 -64.81344 13552 ft 367 kts 88°
2026-05-08 03:37 10.90314 -64.78761 13044 ft 361 kts 88°
2026-05-08 03:37 10.90352 -64.76226 12534 ft 356 kts 88°
2026-05-08 03:37 10.90389 -64.73713 12032 ft 352 kts 88°
2026-05-08 03:38 10.90425 -64.71240 11535 ft 348 kts 88°
2026-05-08 03:38 10.90461 -64.68794 11044 ft 344 kts 88°
2026-05-08 03:38 10.90496 -64.66358 10555 ft 341 kts 88°
2026-05-08 03:38 10.90529 -64.63988 10376 ft 329 kts 88°
2026-05-08 03:39 10.90560 -64.61716 10254 ft 315 kts 88°
2026-05-08 03:39 10.90589 -64.59541 10139 ft 301 kts 89°
2026-05-08 03:39 10.90616 -64.57469 9928 ft 293 kts 89°
2026-05-08 03:39 10.90644 -64.55416 9557 ft 289 kts 89°
2026-05-08 03:40 10.90671 -64.53360 9195 ft 286 kts 89°
2026-05-08 03:40 10.90697 -64.51370 8829 ft 283 kts 88°
2026-05-08 03:40 10.90723 -64.49383 8463 ft 280 kts 88°
2026-05-08 03:40 10.90749 -64.47411 8102 ft 277 kts 88°
2026-05-08 03:41 10.90773 -64.45461 7742 ft 275 kts 88°
2026-05-08 03:41 10.90798 -64.43527 7377 ft 273 kts 88°
2026-05-08 03:41 10.90823 -64.41607 7020 ft 271 kts 88°
2026-05-08 03:41 10.90847 -64.39689 6662 ft 270 kts 88°
2026-05-08 03:42 10.90872 -64.37788 6299 ft 268 kts 88°
2026-05-08 03:42 10.90896 -64.35898 5937 ft 266 kts 88°
2026-05-08 03:42 10.90921 -64.34015 5584 ft 264 kts 88°
2026-05-08 03:42 10.90945 -64.32151 5225 ft 263 kts 89°
2026-05-08 03:43 10.90968 -64.30299 4882 ft 262 kts 89°
2026-05-08 03:43 10.90990 -64.28454 4520 ft 260 kts 89°
2026-05-08 03:43 10.91011 -64.26624 4283 ft 253 kts 89°
2026-05-08 03:43 10.91032 -64.24881 4186 ft 241 kts 89°
2026-05-08 03:44 10.91052 -64.23214 4061 ft 231 kts 89°
2026-05-08 03:44 10.91071 -64.21592 3830 ft 227 kts 89°
2026-05-08 03:44 10.91090 -64.20025 3738 ft 217 kts 89°
2026-05-08 03:44 10.91103 -64.18528 3612 ft 209 kts 91°
2026-05-08 03:45 10.90870 -64.17077 3286 ft 210 kts 107°
2026-05-08 03:45 10.90264 -64.15734 2880 ft 212 kts 114°
2026-05-08 03:45 10.89601 -64.14411 2501 ft 208 kts 113°
2026-05-08 03:45 10.88987 -64.13160 2357 ft 192 kts 112°
2026-05-08 03:46 10.88451 -64.11981 2248 ft 175 kts 103°
2026-05-08 03:46 10.88344 -64.10824 2204 ft 159 kts 82°
2026-05-08 03:46 10.88586 -64.09728 2202 ft 154 kts 77°
2026-05-08 03:46 10.88814 -64.08712 2205 ft 146 kts 78°
2026-05-08 03:47 10.89019 -64.07707 2027 ft 141 kts 78°
2026-05-08 03:47 10.89210 -64.06768 1849 ft 130 kts 78°
2026-05-08 03:47 10.89380 -64.05928 1689 ft 114 kts 78°
2026-05-08 03:47 10.89545 -64.05115 1537 ft 120 kts 79°
2026-05-08 03:48 10.89713 -64.04285 1381 ft 122 kts 78°
2026-05-08 03:48 10.89885 -64.03436 1205 ft 124 kts 77°
2026-05-08 03:48 10.90059 -64.02578 1031 ft 122 kts 77°
2026-05-08 03:48 10.90233 -64.01720 875 ft 126 kts 77°
2026-05-08 03:49 10.90410 -64.00849 685 ft 121 kts 78°
2026-05-08 03:49 10.90579 -64.00022 540 ft 123 kts 77°
2026-05-08 03:49 10.90743 -63.99154 348 ft 126 kts 77°
2026-05-08 03:49 10.90932 -63.98280 180 ft 126 kts 77°
2026-05-08 03:50 10.91107 -63.97423 67 ft 115 kts 78°
2026-05-08 03:50 10.91230 -63.96831 62 ft 57 kts 78°
2026-05-08 03:50 10.91274 -63.96609 57 ft 22 kts 78°
2026-05-08 03:50 10.91301 -63.96482 55 ft 0 kts 77°
2026-05-08 03:51 10.91325 -63.96451 55 ft 10 kts 16°
2026-05-08 03:51 10.91390 -63.96471 55 ft 12 kts 348°
2026-05-08 03:51 10.91492 -63.96493 59 ft 18 kts 348°
2026-05-08 03:51 10.91571 -63.96549 53 ft 17 kts 282°
2026-05-08 03:52 10.91545 -63.96679 59 ft 9 kts 258°
2026-05-08 03:52 10.91561 -63.96735 59 ft 12 kts 329°
2026-05-08 03:52 10.91610 -63.96745 55 ft 1 kts 344°
2026-05-08 03:52 10.91615 -63.96746 56 ft 0 kts 349°